Regional Weather Roundup
Issued by NWS

Home | Current Version | Previous Version | Text Only | Print | Product List | Glossary Off
Versions: 1 2 3 4 5 6 7 8 9 10 11 12 13 14 15 16 17 18 19 20 21 22 23 24 25 26 27

000
ASUS45 KSLC 221110
RWRUT

UTAH REGIONAL WEATHER ROUNDUP
NATIONAL WEATHER SERVICE SALT LAKE CITY UT
500 AM MDT TUE MAY 22 2018

UTZ001>011-023>025-221200-

NORTHERN UTAH

CITY           SKY/WX    TMP DP  RH WIND       PRES   REMARKS
BRIGHAM CITY   MOCLDY    56  44  63 S5        29.89S
HILL AFB       MOCLDY    56  45  67 SE10      29.89F
LOGAN          MOCLDY    50  43  77 CALM      29.93S
OGDEN          MOCLDY    57  41  55 S8        29.88S
SALT LAKE CITY MOCLDY    58  45  62 SE6       29.88F
TOOELE VALLEY  MOCLDY    48  45  87 SE5       29.90F
WENDOVER       MOCLDY    60  43  53 N10       29.91F
HEBER CITY       N/A     39  36  87 E5        29.94S
WEST JORDAN    PTCLDY    54  45  72 CALM      29.90F

$$

UTZ011>015-024>027-221200-

CENTRAL/NORTHEAST UTAH

CITY           SKY/WX    TMP DP  RH WIND       PRES   REMARKS
PROVO AIRPORT  PTCLDY    53  44  71 SE6       29.91R
MOAB/CANYONLAN CLOUDY    68  36  30 SE10      29.84R
DELTA          CLOUDY    54  41  62 NW8       29.90F
PRICE          CLOUDY    58  28  32 SW3       29.92R
ROOSEVELT      PTCLDY    50  32  50 W3        29.91S
VERNAL         PTCLDY    51  36  56 S7        29.90R

$$

UTZ013>016-019>022-027-221200-

SOUTHERN UTAH

CITY           SKY/WX    TMP DP  RH WIND       PRES   REMARKS
BRYCE CANYON   PTCLDY    49  23  36 SE9       30.01S
CEDAR CITY     MOCLDY    51  29  42 S8        29.91R
MILFORD        MOCLDY    51  32  48 S8        29.87R
ST GEORGE      MOSUNNY   69  37  30 NE5       29.79R
HANKSVILLE     CLOUDY    59  28  31 CALM      29.85S
BLANDING         N/A     56  37  47 CALM      30.06R

$$

REGIONAL REPORTS     COLORADO/ARIZONA

CITY           SKY/WX    TMP DP  RH WIND       PRES   REMARKS
CRAIG, CO      MOCLDY    38  34  85 CALM      29.99R
GRAND JUNCTION PTCLDY    61  34  36 E15       29.89S
RIFLE, CO      CLEAR     50  35  56 CALM      29.95S
MONTROSE, CO   PTCLDY    50  31  48 VRB3      29.98S
CORTEZ, CO     MOCLDY    60  39  45 MISG      30.00R
COLORADO CITY    N/A     50  34  53 S3        29.91S
PAGE, AZ       CLOUDY    72  21  14 VRB3      29.84
GRAND CANYON   PTCLDY    32  15  49 CALM      29.98S
KINGMAN, AZ    MOCLDY    61  40  45 S3        29.82S
FLAGSTAFF, AZ  CLOUDY    39  21  48 CALM      30.01R

$$

REGIONAL REPORTS    NEVADA/IDAHO/WYOMING

CITY           SKY/WX    TMP DP  RH WIND       PRES   REMARKS
LAS VEGAS, NV  PTCLDY    72  39  30 N8        29.74R
ELY, NY        PTCLDY    37  36  96 S8        29.98S WCI  31
ELKO, NV       CLOUDY    49  44  83 CALM      29.94R
POCATELLO, ID  MOCLDY    50  45  83 SE5       29.97R
BURLEY, ID     MOCLDY    54  46  74 W3        29.91F
FORT BRIDGER,    N/A     46  38  72 N3        30.06S
EVANSTON, WY   MOCLDY    46  40  79 N5        30.02F
ROCK SPRINGS,  MOCLDY    49  39  68 E7        30.02R
KEMMERER, WY   MOCLDY    43  34  70 N10       30.06S

$$




USA.gov is the U.S. government's official web portal to all federal, state and local government web resources and services.